This demonstration page uses our WeatherBlox Daily Observations layout. Learn more.

Left ArrowRight Arrow

44.31136, -96.79839

Hourly Observations for September 29, 2021

Temp ( °F °C ) Dew Point ( °F °C ) Humidity (%) Winds ( mph kmh ) Pressure ( in mb ) Visibility ( mi km ) Precip ( " mm )
12:56 am 00:56 Clear 68 20 58 14.4 70 70 SE 14 22 29.83 1010 10 16 0.00 0.00
1:56 am 01:56 Clear 67 19.4 57 13.9 71 71 SE 14 22 29.84 1010 10 16 0.00 0.00
2:56 am 02:56 Clear 67 19.4 56 13.3 68 68 SSE 12 19 29.85 1011 10 16 0.00 0.00
3:56 am 03:56 Clear 65 18.3 56 13.3 73 73 SSE 12 19 29.86 1011 10 16 0.00 0.00
4:56 am 04:56 Clear 65 18.3 55 12.8 70 70 SSE 10 17 29.87 1012 10 16 0.00 0.00
5:56 am 05:56 Clear 62 16.7 55 12.8 78 78 SE 12 19 29.88 1012 10 16 0.00 0.00
6:56 am 06:56 Clear 62 16.7 55 12.8 78 78 SE 10 17 29.89 1012 10 16 0.00 0.00
7:56 am 07:56 Sunny 62 16.7 55 12.8 78 78 SE 10 17 29.91 1013 10 16 0.00 0.00
8:56 am 08:56 Sunny 64 17.8 56 13.3 75 75 SSE 13 20 29.92 1013 10 16 0.00 0.00
9:56 am 09:56 Sunny 67 19.4 57 13.9 71 71 SSE 13 20 29.93 1013 10 16 0.00 0.00
10:56 am 10:56 Sunny 73 22.8 59 15 62 62 S 12 19 29.93 1013 10 16 0.00 0.00
11:56 am 11:56 Sunny 75 23.9 58 14.4 55 55 SSE 14 22 29.92 1013 10 16 0.00 0.00
12:56 pm 12:56 Sunny 76 24.4 59 15 56 56 SSE 13 20 29.92 1013 10 16 0.00 0.00
1:56 pm 13:56 Sunny 78 25.6 58 14.4 50 50 SSE 23 37 29.91 1013 10 16 0.00 0.00
2:56 pm 14:56 Sunny 78 25.6 55 12.8 45 45 SSE 22 35 29.91 1013 10 16 0.00 0.00
3:56 pm 15:56 Sunny 78 25.6 56 13.3 47 47 S 14 22 29.93 1014 10 16 0.00 0.00
4:56 pm 16:56 Sunny 76 24.4 59 15 56 56 S 10 17 29.94 1014 10 16 0.00 0.00
5:56 pm 17:56 Mostly Sunny 75 23.9 60 15.6 60 60 S 8 13 29.97 1015 10 16 0.00 0.00
6:56 pm 18:56 Partly Cloudy 74 23.3 59 15 60 60 SSE 5 7 29.97 1015 10 16 0.00 0.00
7:56 pm 19:56 Partly Cloudy 71 21.7 60 15.6 68 68 Calm 29.98 1015 10 16 0.00 0.00
8:56 pm 20:56 Partly Cloudy 70 21.1 60 15.6 71 71 ENE 5 7 30.00 1016 10 16 0.00 0.00
9:56 pm 21:56 Mostly Cloudy 67 19.4 60 15.6 79 79 Calm 30.01 1016 10 16 0.00 0.00
10:56 pm 22:56 Mostly Cloudy 65 18.3 59 15 81 81 NW 6 9 30.02 1017 10 16 0.00 0.00
11:12 pm 23:12 Cloudy with Nearby Thunderstorms 66 19 59 15 78 78 N 5 7 29.96 1015 10 16 0.00 0.00
11:27 pm 23:27 Partly Cloudy 66 19 59 15 78 78 E 3 6 29.95 1014 10 16 0.00 0.00
11:56 pm 23:56 Mostly Cloudy 65 18.3 59 15 81 81 S 3 6 30.03 1017 9 14 0.00 0.00

Powered by AerisWeather